CZ-6A DEB, 56588

Orbit data source: Space-Track

CZ-6A DEB, 56588 is space debris in SSO originally from a launch on Fri, 11 Nov 2022 UTC launched from the Taiyaun Space Center, China (TSC). Debris objects in space refer to the collection of defunct objects orbiting the Earth. Examples of debris include non-operational satellites, rocket bodies, and fragments generated from explosions, collisions, or faulty payload assembly.

Loading next visibility...
Identifier
56588, 2022-151ADL
Orbit
SSO
Country
Flag of CNCN / PRC
Related business
Manufacturer
SAST
Mission
Spacecraft
Bus & Motor
Unknown
Mass
Unknown
Launch date (UTC)
2022-11-11 (4 years ago)
Launch vehicle
Unknown
Launch site
Taiyaun Space Center, China (TSC)
Object type
Payload
Rocket body
Debris
Shape & HBR
Unknown shape, 0.1 m
Radar Cross Section
Small (<0.1 m²)

Expand to show TLE details & history
Last TLE update: 15 hours ago

TLE from 15 hours ago
0 CZ-6A DEB
1 56588U 22151ADL 26236.20695354  .00009611  00000-0  12387-2 0  9996
2 56588  98.6272 321.1827 0055756 306.1624  53.4435 14.80187922187565
Epoch: 2026-08-24T04:58Z
TLE epoch observation values (Epoch: 2026-08-24T04:58:00.785Z)
Latitude
-0.00001°
Longitude
-85.81254°
Altitude
608.597 km
Speed
7.567 km/s
True Right ascension
21h 24m 43s
True Declination
0° 00' 00"
Sunlit
Object was in full shadow at epoch
Visualization orbit readout
Latitude
Unknown
Longitude
Unknown
Altitude
Unknown
Speed
Unknown
Apparent Right ascension
Unknown
Apparent Declination
Unknown
Sunlit
N/A
Visualization observer readout
Local Sidereal Time
10:51:06
Azimuth
Unknown
Elevation
Unknown
Doppler factor
Unknown
Orbital elements
Apogee altitude
664.857 km
Perigee altitude
586.754 km
Semi-major axis
7,003.943 km
Eccentricity
0.00558
Inclination
98.6272°
RAAN
321.1827°
Arg. of periapsis
306.1624°
True anomaly
53.95885°
Mean anomaly
53.4435°
Eccentric anomaly
53.70096°
Mean motion
3.70279 °/min
Orbital period
97.22 mins
BSTAR
0.0012387
Loading maneuver chart data...
Computing Atmospheric mass density...
Loading historical data...
Loading historical data...
Loading historical data...
Loading historical data...
Loading historical data...
Loading historical data...
Loading historical data...

Documentation

Showing up to 5 results
|